Regional Weather Roundup
Issued by NWS

Home | Current Version | Previous Version | Text Only | Print | Product List | Glossary Off
Versions: 1 2 3 4 5 6 7 8 9 10 11 12 13 14 15 16 17 18 19 20 21 22 23 24 25 26 27 28 29 30 31 32 33 34 35 36 37 38 39 40 41 42 43 44 45 46 47 48 49 50

187
ASUS45 KBOU 270307
RWRCO

WEATHER ROUNDUP FOR COLORADO
NATIONAL WEATHER SERVICE DENVER/BOULDER CO
900 PM MDT FRI AUG 26 2016

NOTE: "FAIR" INDICATES FEW OR NO CLOUDS BELOW 12000 FEET WITH NO
SIGNIFICANT WEATHER AND/OR OBSTRUCTIONS TO VISIBILITY.

COZ001>005-013-030-031-270400-
...NORTHWEST COLORADO...

CITY           SKY/WX    TMP DP  RH WIND       PRES   REMARKS
CRAIG          FAIR      55  46  71 E5        30.20S
HAYDEN         FAIR      54  39  58 SE8       30.23R
MEEKER         LGT RAIN  57  42  57 S23G44    30.21F
MOUNT WERNER   NOT AVBL
STEAMBOAT SPGS CLOUDY    54  43  66 SE7       30.24F
WALDEN         FAIR      52  34  50 W9        30.32R
$$

COZ006>008-011-270400-
...WEST CENTRAL VALLEYS...

CITY           SKY/WX    TMP DP  RH WIND       PRES   REMARKS
GRAND JUNCTION RAIN      61  51  70 N25G35    30.13R
MONTROSE       FAIR      65  46  50 SE8       30.16R
EAGLE          FAIR      63  39  42 E6        30.21R
RIFLE          LGT RAIN  67  41  38 NW22G30   30.14R
DELTA          FAIR      69  43  39 CALM      30.11R
NUCLA          MOCLDY   N/A N/A N/A SW7       30.20S
$$

COZ017>023-064>068-270400-
...SOUTHWEST COLORADO...

CITY           SKY/WX    TMP DP  RH WIND       PRES   REMARKS
DURANGO        FAIR      64  39  39 VRB5      30.22R
CORTEZ         FAIR      61  52  72 CALM      30.17R
PAGOSA SPRINGS MOCLDY    55  47  75 NE5       30.29R
TELLURIDE      FAIR      51  44  78 SE5       30.39S
WOLF CREEK PAS FAIR      37  37 100 SW16      30.56R
$$

COZ009-010-012-014-032>034-037-058>063-270400-
...CENTRAL COLORADO...

CITY           SKY/WX    TMP DP  RH WIND       PRES   REMARKS
ASPEN          FAIR      52  39  61 SW7       30.27R
BUENA VISTA    FAIR      54  36  50 W8        30.28R
COPPER MTN     FAIR      45  27  49 S8        30.53R
BERTHOUD PASS  FAIR      34  23  64 W8        30.53S WCI  27
COTTONWOOD PAS FAIR      55  28  35 SW8G18    30.40R
GUNNISON       CLOUDY    57  39  51 NW3       30.30R
KREMMLING      CLOUDY    54  37  54 NW8       30.30R
LEADVILLE      FAIR      44  31  60 NE6       30.39R
MONARCH PASS   FAIR      43  30  61 W12       30.63R
SALIDA         FAIR      59  36  41 W10       30.32R
SUNLIGHT       MOCLDY    48  32  53 NE3       30.47R
WILKERSON PASS FAIR      45  32  61 SE6       30.52R
$$

COZ069>075-270400-
...SAN LUIS VALLEY/SANGRE DE CRISTO MOUNTAINS...

CITY           SKY/WX    TMP DP  RH WIND       PRES   REMARKS
ALAMOSA        FAIR      58  42  55 CALM      30.26R
LA VETA PASS   FAIR      46  32  57 S9        30.42R
SAGUACHE       MOCLDY    55  43  62 CALM      30.28R
$$

COZ035-036-038>040-270400-
...NORTHERN COLORADO FRONT RANGE...

CITY           SKY/WX    TMP DP  RH WIND       PRES   REMARKS
DENVER INTL AP FAIR      62  49  62 SE16      30.12R
DMNS CITY PARK   N/A     64  50  58 E9G16     30.13R
AURORA         PTCLDY    62  50  65 SE15      30.14R
FRONT RANGE AP PTCLDY    64  50  59 E18G25    30.14R
ERIE MUNI ARPT FAIR      65  47  51 SE9       30.11R
BOULDER MUN AP FAIR      63  46  55 CALM      30.13R
CENTENNIAL     FAIR      65  43  44 E13G21    30.15R
BROOMFIELD     MOCLDY    64  48  55 VRB9      30.14R
FORT COLLINS   FAIR      59  46  63 NW6       30.13R
LONGMONT       FAIR      62  49  62 NW3       30.15R
$$

COZ041-046-047-076>085-087-088-270400-
...PIKES PEAK/PALMER DIVIDE AND SOUTHERN FOOTHILLS...

CITY           SKY/WX    TMP DP  RH WIND       PRES   REMARKS
COLO. SPRINGS  MOCLDY    64  44  48 CALM      30.19R
A. F. ACADEMY  MOCLDY    59  53  80 NW3       30.19R
SCHRIEVER AFB  NOT AVBL
ELLICOTT       NOT AVBL
FALCON         CLOUDY    60  45  58 CALM      30.24R
FORT CARSON    FAIR      63  46  54 W7        30.15R
LIMON          FAIR      57  50  77 E13       30.14S
MONUMENT HILL  FAIR      54  45  71 S7        30.24R
TRINIDAD       FAIR      64  49  57 SW6       30.13R
$$

COZ042>045-048>051-090-091-270400-
...NORTHEAST COLORADO...

CITY           SKY/WX    TMP DP  RH WIND       PRES   REMARKS
GREELEY ARPT   FAIR      63  54  72 SE9       30.10R
AKRON          FAIR      56  53  90 SE10      30.10S
BURLINGTON     FAIR      60  52  74 NE5       30.10R
WRAY           NOT AVBL
STERLING       FAIR      55  54  94 S7        30.07R
HOLYOKE        FAIR      59  55  88 S3        30.09R
FORT MORGAN    FAIR      58  53  81 SE9       30.11R
$$

COZ086-089-092>099-270400-
...SOUTHEAST COLORADO...

CITY           SKY/WX    TMP DP  RH WIND       PRES   REMARKS
PUEBLO         FAIR      67  47  48 W7        30.07R
LA JUNTA       FAIR      71  54  54 SE5       30.05R
LAMAR          FAIR      72  52  49 E3        30.01R
SPRINGFIELD      N/A     62  59  90 S5        30.07R
$$




USA.gov is the U.S. government's official web portal to all federal, state and local government web resources and services.